Regional Weather Roundup
Issued by NWS Kansas City/Pleasant Hill, MO

Home | Current Version | Previous Version | Graphics & Text | Print | Product List | Glossary Off
Versions: 1 2 3 4 5 6 7 8 9 10 11 12 13 14 15 16 17 18 19 20 21 22 23 24 25 26 27

000
ASUS43 KEAX 272110
RWREAX

WEATHER ROUNDUP FOR EASTERN KANSAS AND NORTHWEST MISSOURI
NATIONAL WEATHER SERVICE KANSAS CITY/PLEASANT HILL MO
400 PM CDT TUE JUN 27 2017

KSZ040-057-103>105-MOZ028-029-037-043-272200-
...KANSAS CITY METROPOLITAN AREA...

CITY           SKY/WX    TMP DP  RH WIND       PRES   REMARKS
K.C. INTL      PTSUNNY   78  64  61 SE12      29.98F
K.C. DOWNTOWN  MOSUNNY   83  65  54 S13G20    29.97F
LEES SUMMIT    PTSUNNY   80  65  59 SE13G18   30.00F
OLATHE - IXD   MOSUNNY   80  64  58 SE14      29.99F
OLATHE - OJC   CLOUDY    79  66  64 S14G21    29.99F
LAWRENCE       CLOUDY    82  67  60 SE14      29.96F

$$

MOZ001>008-011>017-020>025-030>033-038>040-044>046-053-054-272200-
...NORTHERN AND CENTRAL MISSOURI...

CITY           SKY/WX    TMP DP  RH WIND       PRES   REMARKS
ST. JOSEPH     PTSUNNY   80  65  59 SE15G21   29.97F
WARRENSBURG    MOSUNNY   79  63  57 SE10      30.00F
WHITEMAN AFB   NOT AVBL
CLINTON        PTSUNNY   82  66  57 S12G20    30.02F
SEDALIA        MOSUNNY   81  66  60 SE10      30.04F
WARSAW         NOT AVBL
CHILLICOTHE      N/A     80  61  52 S12G17    30.01F
KIRKSVILLE     SUNNY     78  54  43 SE13      30.04F

$$

MOZ041-047>049-056>058-063>065-088>090-097-272200-
...EASTERN AND SOUTHERN MISSOURI...

CITY           SKY/WX    TMP DP  RH WIND       PRES   REMARKS
ST. LOUIS INTL MOSUNNY   81  50  33 S9G22     30.07F
SPIRIT OF STL  SUNNY     81  50  33 S7        30.05F
COLUMBIA       SUNNY     79  59  50 SE6       30.05F
JEFFERSON CITY SUNNY     80  58  46 MISG      30.04F
ROLLA          MOSUNNY   80  59  48 SE8       30.06F
OSAGE BEACH    PTSUNNY   80  64  58 S6        30.06F
SPRINGFIELD    MOSUNNY   81  65  58 S12       30.04F
BRANSON        PTSUNNY   82  63  51 SE8       30.07F
JOPLIN         PTSUNNY   85  69  58 SE8       30.01F
WEST PLAINS    MOSUNNY   78  61  55 SE6       30.09F

$$

IAZ060-094-KSZ022-034>040-054-083-096-NEZ052-066-093-272200-
...KANSAS...SOUTHEAST NEBRASKA AND IOWA...

CITY           SKY/WX    TMP DP  RH WIND       PRES   REMARKS
TOPEKA         CLOUDY    79  68  69 S16G24    29.96F
MANHATTAN      MOSUNNY   84  70  62 S18G26    29.91F
EMPORIA        PTSUNNY   83  68  60 SE16G25   29.95F
CHANUTE        MOSUNNY   86  62  44 SE17G24   29.97F
WICHITA        MOSUNNY   91  69  48 S20G32    29.89F HX  96
OMAHA          PTSUNNY   82  61  48 S23       29.90F
LINCOLN        MOSUNNY   83  65  54 SE21G29   29.88F
FALLS CITY     PTSUNNY   77  64  64 SE15      29.93F
LAMONI         SUNNY     78  58  49 S10G21    29.99F
DES MOINES     PTSUNNY   79  50  36 SE14      29.98F

$$





USA.gov is the U.S. government's official web portal to all federal, state and local government web resources and services.